EW9536 Weather Reports


time (UTC)temp
C
wind
direction
speed
KPH
gust
KPH
rain 1hr
cm
rain 24hr
cm
rain mn
cm
humidity
%
barometer
mb
20260510091518 18 135 3.2 6.4 0.00 1.09 0.00 74 1012.8
20260510090518 18 90 3.2 9.7 0.00 1.09 0.00 74 1012.8
20260510085517 17 158 4.8 8.0 0.00 1.09 0.00 77 1012.7
20260510084517 17 23 4.8 6.4 0.00 1.09 0.00 78 1012.7
20260510083537 16 45 1.6 4.8 0.00 1.09 0.00 78 1012.8
20260510082517 16 45 3.2 6.4 0.00 1.09 0.00 79 1012.8
20260510081538 15 90 3.2 4.8 0.00 1.09 0.00 81 1012.9
20260510080518 14 45 3.2 6.4 0.00 1.09 0.00 84 1012.7
20260510075559 13 90 1.6 4.8 0.00 1.09 0.00 87 1012.8
20260510074517 12 0.0 3.2 0.00 1.09 0.00 92 1012.7
20260510073517 12 0.0 3.2 0.00 1.09 0.00 93 1012.7
20260510072518 11 23 3.2 4.8 0.00 1.09 0.00 95 1012.6
20260510071517 11 23 3.2 4.8 0.00 1.09 0.00 97 1012.6
20260510070517 10 0 1.6 3.2 0.00 1.09 0.00 97 1012.4
20260510065537 10 315 1.6 3.2 0.00 1.09 0.00 96 1012.3
20260510064558 9 0.0 1.6 0.00 1.09 0.00 97 1012.3
20260510063517 9 0.0 1.6 0.00 1.09 0.00 96 1012.2
20260510062517 9 225 1.6 6.4 0.00 1.09 0.00 97 1012.2
20260510061517 8 225 1.6 4.8 0.00 1.09 0.00 96 1012.2
20260510060517 8 203 3.2 4.8 0.00 1.09 0.00 97 1012.2
20260510055517 8 0.0 3.2 0.00 1.09 0.00 97 1012.1
20260510054518 8 225 1.6 3.2 0.00 1.09 0.00 97 1011.9
20260510053517 7 270 1.6 3.2 0.00 1.09 0.00 96 1011.9
20260510052517 7 293 1.6 4.8 0.00 1.09 0.00 96 1011.9
20260510051517 7 270 1.6 4.8 0.00 1.09 0.00 96 1011.9
20260510050517 7 270 1.6 4.8 0.00 1.09 0.00 95 1011.9
20260510045516 8 270 1.6 1.6 0.00 1.09 0.00 96 1011.8
20260510044517 8 270 1.6 3.2 0.00 1.09 0.00 96 1011.8
20260510043517 8 293 1.6 3.2 0.00 1.09 0.00 96 1012.0
20260510042516 8 270 3.2 4.8 0.00 1.09 0.00 96 1012.2
20260510041516 8 293 3.2 6.4 0.00 1.09 0.00 96 1012.1
20260510040516 8 270 1.6 4.8 0.00 1.09 0.00 96 1012.0
20260510035517 8 293 3.2 9.7 0.00 1.09 0.00 96 1012.1
20260510034537 8 293 3.2 4.8 0.00 1.09 0.00 96 1012.1
20260510033517 8 270 3.2 8.0 0.00 1.09 0.00 96 1012.2
20260510032517 8 270 3.2 4.8 0.00 1.09 0.00 96 1012.2
20260510031517 8 293 3.2 6.4 0.00 1.09 0.00 96 1012.3
20260510030517 8 270 3.2 4.8 0.00 1.09 0.00 96 1012.3
20260510025517 8 0.0 3.2 0.00 1.09 0.00 96 1012.2
20260510024537 8 270 1.6 3.2 0.00 1.09 0.00 95 1012.3
20260510023517 8 270 3.2 6.4 0.00 1.09 0.00 96 1012.4
20260510022517 8 0.0 3.2 0.00 1.09 0.00 96 1012.5
20260510021517 8 270 1.6 4.8 0.00 1.09 0.00 96 1012.6
20260510020516 8 293 3.2 4.8 0.00 1.09 0.00 95 1012.5
20260510015516 9 293 1.6 4.8 0.00 1.09 0.00 95 1012.5
20260510014517 9 315 1.6 4.8 0.00 1.09 0.00 96 1012.5
20260510013517 9 293 1.6 4.8 0.00 1.09 0.00 96 1012.6
20260510012537 10 270 1.6 4.8 0.00 1.09 0.00 96 1012.6
20260510011516 10 270 4.8 9.7 0.00 1.09 0.00 96 1012.6
20260510010516 10 293 3.2 6.4 0.00 1.09 0.00 96 1012.5
20260510005516 10 270 1.6 3.2 0.00 1.09 0.00 96 1012.5
20260510004537 10 0.0 3.2 0.00 1.09 0.00 96 1012.6
20260510003516 10 270 3.2 4.8 0.00 1.09 0.00 96 1012.8
20260510002516 10 270 1.6 4.8 0.00 1.09 0.00 96 1012.8
20260510001516 10 270 3.2 6.4 0.00 1.09 0.00 96 1012.8
20260510000517 10 293 3.2 4.8 0.00 1.09 0.00 95 1012.9
20260509235538 10 293 4.8 9.7 0.00 1.09 1.09 95 1013.1
20260509234518 10 315 3.2 4.8 0.00 1.09 1.09 95 1013.2
20260509233537 10 293 4.8 6.4 0.00 1.09 1.09 95 1013.3
20260509232517 10 293 4.8 8.0 0.00 1.09 1.09 95 1013.5
20260509231517 10 293 3.2 4.8 0.00 1.09 1.09 95 1013.4
20260509230517 11 225 1.6 3.2 0.00 1.09 1.09 93 1013.4
20260509225557 11 338 1.6 3.2 0.00 1.09 1.09 95 1013.3
20260509224517 11 270 3.2 4.8 0.00 1.09 1.09 95 1013.5
20260509223538 11 270 1.6 3.2 0.00 1.09 1.09 95 1013.5
20260509222517 11 293 3.2 4.8 0.00 1.09 1.09 95 1013.5
20260509221517 11 270 1.6 3.2 0.00 1.09 1.09 95 1013.4
20260509220517 12 248 3.2 4.8 0.00 1.09 1.09 95 1013.5
20260509215517 12 270 1.6 3.2 0.00 1.09 1.09 95 1013.4
20260509214516 12 315 1.6 3.2 0.00 1.09 1.09 95 1013.3
20260509213517 12 0.0 1.6 0.00 1.09 1.09 95 1013.4
20260509212517 12 293 1.6 3.2 0.00 1.09 1.09 95 1013.4
20260509211537 12 293 1.6 3.2 0.00 1.09 1.09 95 1013.3
20260509210517 12 293 1.6 3.2 0.00 1.09 1.09 95 1013.3
20260509205516 12 270 1.6 4.8 0.00 1.09 1.09 95 1013.2
20260509204517 12 315 1.6 3.2 0.00 1.09 1.09 95 1013.0
20260509203517 12 315 4.8 6.4 0.00 1.09 1.09 94 1012.8
20260509202537 12 315 3.2 4.8 0.00 1.09 1.09 94 1012.7
20260509201516 12 248 1.6 3.2 0.00 1.09 1.09 94 1012.6
20260509200516 12 225 3.2 4.8 0.00 1.09 1.09 94 1012.4
20260509195516 12 248 3.2 4.8 0.00 1.09 1.09 94 1012.0
20260509194517 12 225 3.2 4.8 0.00 1.09 1.09 94 1011.8
20260509193516 13 225 1.6 4.8 0.00 1.09 1.09 94 1011.5
20260509192516 13 270 3.2 4.8 0.00 1.09 1.09 94 1011.4
20260509191536 13 293 3.2 6.4 0.00 1.09 1.09 94 1011.4
20260509190517 13 293 3.2 6.4 0.00 1.09 1.09 94 1011.3
20260509185516 13 293 4.8 6.4 0.00 1.09 1.09 93 1011.3
20260509184517 13 270 4.8 11.3 0.00 1.09 1.09 94 1011.2
20260509183516 13 293 4.8 11.3 0.00 1.09 1.09 94 1011.1
20260509182516 13 293 4.8 9.7 0.00 1.09 1.09 94 1010.9
20260509181516 13 293 3.2 6.4 0.03 1.09 1.09 94 1010.8
20260509180537 13 338 1.6 3.2 0.03 1.09 1.09 94 1010.5
20260509175518 13 248 6.4 9.7 0.05 1.09 1.09 94 1010.4
20260509174519 13 248 4.8 8.0 0.05 1.09 1.09 94 1010.4
20260509173518 13 248 1.6 3.2 0.10 1.09 1.09 94 1010.2
20260509172519 13 248 1.6 4.8 0.15 1.09 1.09 94 1010.2
20260509171519 13 270 3.2 4.8 0.23 1.07 1.07 93 1010.4
20260509170518 13 23 1.6 4.8 0.33 1.07 1.07 93 1010.4
20260509165538 13 45 3.2 4.8 0.43 1.04 1.04 93 1010.7
20260509164518 13 23 3.2 4.8 0.61 1.02 1.02 93 1011.2
20260509163518 13 45 1.6 3.2 0.74 0.99 0.99 92 1011.6
20260509162518 13 23 3.2 4.8 0.76 0.91 0.91 92 1012.0
20260509161518 13 113 3.2 4.8 0.71 0.84 0.84 92 1012.2
20260509160538 13 135 1.6 4.8 0.64 0.71 0.71 91 1012.4
20260509155518 13 180 3.2 9.7 0.53 0.61 0.61 91 1012.6
20260509154518 14 180 9.7 14.5 0.36 0.43 0.43 90 1012.6
20260509153518 14 180 11.3 19.3 0.18 0.23 0.23 90 1012.8
20260509152518 15 203 11.3 20.9 0.10 0.15 0.15 89 1012.6
20260509151518 15 203 8.0 16.1 0.08 0.13 0.13 89 1012.2
20260509150519 15 180 9.7 14.5 0.05 0.08 0.08 87 1011.2
20260509145518 15 180 9.7 19.3 0.05 0.05 0.05 85 1010.7
20260509144517 16 135 4.8 11.3 0.05 0.05 0.05 85 1010.4
20260509143518 16 68 3.2 6.4 0.05 0.05 0.05 85 1010.3
20260509142519 16 135 3.2 6.4 0.05 0.05 0.05 87 1010.5
20260509141538 16 113 3.2 8.0 0.05 0.05 0.05 86 1010.6
20260509140538 16 135 6.4 11.3 0.05 0.05 0.05 84 1010.9
20260509135518 16 135 8.0 14.5 0.03 0.03 0.03 82 1011.2
20260509134518 16 158 6.4 12.9 0.00 0.00 0.00 80 1011.5
20260509133518 16 180 6.4 11.3 0.00 0.00 0.00 77 1011.7
20260509132517 17 158 11.3 16.1 0.00 0.00 0.00 74 1011.7
20260509131517 17 158 8.0 12.9 0.00 0.00 0.00 72 1012.0
20260509130518 17 180 8.0 12.9 0.00 0.00 0.00 72 1012.3
20260509125538 17 135 6.4 12.9 0.00 0.00 0.00 70 1012.0
20260509124517 17 135 3.2 9.7 0.00 0.00 0.00 70 1011.9
20260509123517 17 68 4.8 12.9 0.00 0.00 0.00 70 1011.7
20260509122517 17 135 6.4 14.5 0.00 0.00 0.00 71 1011.5
20260509121620 17 113 12.9 20.9 0.00 0.00 0.00 72 1011.9
20260509120517 17 135 6.4 14.5 0.00 0.00 0.00 76 1012.2
20260509115537 17 135 12.9 22.5 0.00 0.00 0.00 77 1012.4
20260509114518 17 135 8.0 19.3 0.00 0.00 0.00 79 1012.7
20260509113537 17 135 11.3 22.5 0.00 0.00 0.00 79 1013.0
20260509112538 17 135 12.9 24.1 0.00 0.00 0.00 77 1013.1
20260509111517 17 135 9.7 14.5 0.00 0.00 0.00 74 1012.9
20260509110517 18 135 9.7 17.7 0.00 0.00 0.00 73 1012.9
20260509105517 18 135 6.4 16.1 0.00 0.00 0.00 73 1012.7
20260509104517 17 135 6.4 12.9 0.00 0.00 0.00 73 1012.9
20260509103618 17 135 11.3 16.1 0.00 0.00 0.00 73 1013.1
20260509102518 18 180 8.0 16.1 0.00 0.00 0.00 73 1013.2
20260509101517 17 135 1.6 6.4 0.00 0.00 0.00 74 1013.3
20260509100517 17 90 3.2 6.4 0.00 0.00 0.00 74 1013.2
20260509095537 17 90 3.2 11.3 0.00 0.00 0.00 74 1013.1
20260509094518 17 158 6.4 11.3 0.00 0.00 0.00 75 1013.2
20260509093517 17 90 6.4 12.9 0.00 0.00 0.00 74 1012.9
20260509092517 18 158 6.4 12.9 0.00 0.00 0.00 73 1013.0